Location: Sears
(37.7625°N, 100.1060°W)
Time: 21:55:09
(UTC+00:00)

Cosmos 2266 Rocket - Pass Details

Date: 29 October 2020
Orbit: 935 x 1007 km, 82.9° (Epoch: 30 November)

Event Time Altitude Azimuth Distance (km) Brightness Sun altitude
Rises 12:27:02 0° 183° (S) 3,578 7.1 -7.8°
Reaches altitude 10° 12:29:30 10° 183° (S) 2,636 6.4 -7.3°
Maximum altitude 12:35:30 85° 96° (E) 945 4.1 -6.1°
Drops below altitude 10° 12:41:36 10° 8° (N) 2,667 6.3 -5.0°
Sets 12:44:06 0° 8° (N) 3,623 6.9 -4.5°
